USGS - science for a changing world

Kansas Water Science Center

Jump to content

Jump back to navigation

Current Streamflow Conditions

Welcome to the U.S. Geological Survey (USGS) Web page for the water resources of Kansas. Here you'll find information on Kansas's rivers and streams. You'll also find information about groundwater, water quality, and many other topics. The USGS operates the most extensive satellite network of stream-gaging stations in the state, many of which form the backbone of flood-warning systems.

The Kansas Water Science Center provides current ("real-time") stream stage in Kansas and streamflow, water-quality, and groundwater levels for over 200 sites.
The USGS provides National ("real-time") stream stage and streamflow, water-quality, and groundwater levels for over 7000 sites.

Of Current Interest

USGS Fact Sheet: Summary of hydrologic conditions in Kansas, water year 2016

Press Release: 20 Years Researching Harmful Algal Blooms Supports Sustainable Water Supply in Wichita

Scientific Investigations Report: Spatial variability of harmful algal blooms in Milford Lake, Kansas, July and August 2015.

Status of groundwater levels and storage volume in the Equus Beds aquifer near Wichita, Kansas, January 2016

Predicting cyanobacterial abundance, microcystin, and geosmin in a eutrophic drinking-water reservoir using a 14-year dataset.

USGS WaterAlert Service Turn Around Don't Drown

Now you can receive instant, customized updates about water conditions by subscribing to WaterAlert, a new service from the U.S. Geological Survey. WaterAlert allows you to receive daily or hourly updates about current conditions in rivers, lakes and groundwater when they match conditions of concern to you.

Kansas Earthquakes - Last 30 days

  1. 2.8 7km SE of Mankato, Kansas 2017-05-23 11:16:56 CDT
  2. 2.26 10km SSE of Anthony, Kansas 2017-05-22 15:50:11 CDT
  3. 1.91 10km SSE of Anthony, Kansas 2017-05-22 14:01:58 CDT
  4. 1.58 7km SE of Harper, Kansas 2017-05-21 20:10:00 CDT
  5. 1.86 6km SE of Harper, Kansas 2017-05-21 19:15:34 CDT
  6. 3.4 8km SE of Mankato, Kansas 2017-05-20 23:54:24 CDT
  7. 3 7km SE of Harper, Kansas 2017-05-19 02:32:50 CDT
  8. 2.5 7km SSE of Harper, Kansas 2017-05-19 01:57:49 CDT
  9. 2.5 16km ESE of Caldwell, Kansas 2017-05-18 18:46:37 CDT
  10. 2.6 6km WNW of Harper, Kansas 2017-05-17 11:52:03 CDT
  11. 2.05 7km SE of Harper, Kansas 2017-05-13 17:46:49 CDT
  12. 1.9 7km SE of Harper, Kansas 2017-05-13 05:23:48 CDT
  13. 2.21 7km SE of Harper, Kansas 2017-05-13 02:28:04 CDT
  14. 1.74 10km SSE of Anthony, Kansas 2017-05-10 17:03:00 CDT
  15. 2.8 10km WSW of Conway Springs, Kansas 2017-05-10 05:52:28 CDT
  16. 3.3 27km SSW of Anthony, Kansas 2017-05-07 16:08:21 CDT
  17. 1.83 9km SSE of Anthony, Kansas 2017-05-07 16:01:28 CDT
  18. 2.17 14km N of Caldwell, Kansas 2017-05-05 01:18:13 CDT
  19. 3.5 14km ESE of Harper, Kansas 2017-05-04 18:36:48 CDT
  20. 2.22 19km SE of Anthony, Kansas 2017-04-30 23:37:37 CDT
  21. 2.3 19km E of Anthony, Kansas 2017-04-29 17:25:52 CDT
  22. 1.88 15km ESE of Harper, Kansas 2017-04-28 22:57:03 CDT
  23. 2.02 20km W of Caldwell, Kansas 2017-04-28 22:48:15 CDT
  24. 2.24 9km SSE of Anthony, Kansas 2017-04-28 09:06:22 CDT
  25. 1.69 20km W of Caldwell, Kansas 2017-04-27 11:15:16 CDT
  26. 2.23 8km SE of Harper, Kansas 2017-04-27 01:55:43 CDT
  27. 2.05 10km WNW of Caldwell, Kansas 2017-04-24 20:26:58 CDT
  28. 1.84 2km E of Anthony, Kansas 2017-04-24 20:00:46 CDT
  29. 1.85 10km N of Caldwell, Kansas 2017-04-24 02:36:10 CDT
  30. 1.69 11km SSE of Conway Springs, Kansas 2017-04-24 01:16:02 CDT
  31. 1.87 11km SSE of Conway Springs, Kansas 2017-04-23 23:40:06 CDT
  32. 2.05 11km SSE of Conway Springs, Kansas 2017-04-23 23:17:08 CDT
  33. 1.71 2km E of Anthony, Kansas 2017-04-23 18:38:05 CDT

Highlighted Publications

The Kansas Water Science Center produces publications about water resources.   Search our publications

06882510: Flow=10200cfs,Stage=23.43ft,Floodstage=35ft,2017-05-23 15:30,High,BIG BLUE R AT MARYSVILLE, KS 06813500: Flow=105000cfs,Stage=19.25ft,Floodstage=17ft,2017-05-23 16:00,High,Missouri River at Rulo, NE 07143330: Flow=4200cfs,Stage=8.24ft,Floodstage=10ft,2017-05-23 16:00,>90,ARKANSAS R NR HUTCHINSON, KS 07143300: Flow=652cfs,Stage=13.63ft,Floodstage=18ft,2017-05-23 15:30,>90,COW C NR LYONS, KS 07141900: Flow=255cfs,Stage=9.10ft,Floodstage=24ft,2017-05-23 15:45,>90,WALNUT C AT ALBERT, KS 07141780: Flow=71cfs,Stage=9.24ft,Floodstage=29ft,2017-05-23 15:15,>90,WALNUT C AT NEKOMA, KS 07141300: Flow=2310cfs,Stage=7.45ft,Floodstage=12ft,2017-05-23 15:30,>90,ARKANSAS R AT GREAT BEND, KS 07141200: Flow=276cfs,Stage=14.00ft,Floodstage=31ft,2017-05-23 15:30,>90,PAWNEE R AT ROZEL, KS 07140850: Flow=11cfs,Stage=3.10ft,Floodstage=30ft,2017-05-23 15:00,>90,PAWNEE R NR BURDETT, KS 06915000: Flow=509cfs,Stage=4.79ft,2017-05-23 15:30,>90,BIG BULL C NR HILLSDALE, KS 06893000: Flow=143000cfs,Stage=23.54ft,Floodstage=32ft,2017-05-23 15:30,>90,Missouri River at Kansas City, MO 06892000: Flow=1260cfs,Stage=8.17ft,Floodstage=23ft,2017-05-23 15:30,>90,STRANGER C NR TONGANOXIE, KS 06884200: Flow=550cfs,Stage=6.19ft,Floodstage=18ft,2017-05-23 15:45,>90,MILL C AT WASHINGTON, KS 06884025: Flow=2780cfs,Stage=6.02ft,Floodstage=19ft,2017-05-23 16:00,>90,Little Blue River at Hollenberg, KS 06882000: Flow=8780cfs,Stage=14.30ft,Floodstage=20ft,2017-05-23 15:00,>90,Big Blue River at Barneston, Nebr. 06879100: Flow=14200cfs,Stage=13.25ft,Floodstage=21ft,2017-05-23 15:30,>90,KANSAS R AT FORT RILEY, KS 06877600: Flow=12200cfs,Stage=23.49ft,Floodstage=26ft,2017-05-23 15:45,>90,SMOKY HILL R AT ENTERPRISE, KS 06876900: Flow=7540cfs,Stage=25.90ft,Floodstage=24ft,2017-05-23 15:45,>90,SOLOMON R AT NILES, KS 06876700: Flow=2200cfs,Stage=20.25ft,Floodstage=18ft,2017-05-23 16:00,>90,SALT C NR ADA, KS 06874000: Flow=637cfs,Stage=9.05ft,Floodstage=14ft,2017-05-23 15:30,>90,SF SOLOMON R AT OSBORNE, KS 06873460: Flow=372cfs,Stage=8.29ft,Floodstage=12ft,2017-05-23 15:30,>90,SF SOLOMON R AT WOODSTON, KS 06869500: Flow=2150cfs,Stage=21.31ft,Floodstage=25ft,2017-05-23 15:30,>90,SALINE R AT TESCOTT, KS 06868200: Flow=729cfs,Stage=9.68ft,2017-05-23 15:45,>90,SALINE R AT WILSON DAM, KS 06867000: Flow=516cfs,Stage=8.26ft,Floodstage=18ft,2017-05-23 15:30,>90,SALINE R NR RUSSELL, KS 06866000: Flow=1470cfs,Stage=13.50ft,Floodstage=21ft,2017-05-23 15:30,>90,SMOKY HILL R AT LINDSBORG, KS 06865500: Flow=1510cfs,Stage=9.70ft,2017-05-23 15:30,>90,SMOKY HILL R NR LANGLEY, KS 06864500: Flow=1380cfs,Stage=6.43ft,Floodstage=20ft,2017-05-23 15:30,>90,SMOKY HILL R AT ELLSWORTH, KS 06862850: Flow=38cfs,Stage=3.28ft,Floodstage=11ft,2017-05-23 15:00,>90,SMOKY HILL R BL SCHOENCHEN, KS 06862700: Flow=34cfs,Stage=4.58ft,2017-05-23 15:30,>90,SMOKY HILL R NR SCHOENCHEN, KS 06856600: Flow=7730cfs,Stage=16.40ft,Floodstage=15ft,2017-05-23 15:30,>90,REPUBLICAN R AT CLAY CENTER, KS 06856000: Flow=3570cfs,Stage=10.05ft,Floodstage=15ft,2017-05-23 16:00,>90,REPUBLICAN R AT CONCORDIA, KS 06818000: Flow=106000cfs,Stage=19.16ft,Floodstage=17ft,2017-05-23 15:30,>90,Missouri River at St. Joseph, MO 07137000: Flow=0.00cfs,Stage=9.15ft,2017-05-23 15:45,<10,FRONTIER DITCH NR COOLIDGE, KS 07188000: Flow=9260cfs,Stage=11.53ft,Floodstage=20ft,2017-05-23 15:00,76-90,Spring River near Quapaw, OK 07186000: Flow=2590cfs,Stage=5.32ft,Floodstage=19ft,2017-05-23 15:30,76-90,Spring River near Waco, MO 07184000: Flow=115cfs,Stage=2.24ft,Floodstage=12ft,2017-05-23 15:45,76-90,LIGHTNING C NR MCCUNE, KS 07180400: Flow=522cfs,Stage=4.31ft,Floodstage=22ft,2017-05-23 15:15,76-90,COTTONWOOD R NR FLORENCE, KS 07179795: Flow=317cfs,Stage=6.50ft,2017-05-23 15:30,76-90,N COTTONWOOD R BL MARION LK, KS 07179730: Flow=612cfs,Stage=5.79ft,Floodstage=26ft,2017-05-23 15:15,76-90,NEOSHO R NR AMERICUS, KS 07179500: Flow=365cfs,Stage=9.52ft,2017-05-23 16:00,76-90,NEOSHO R AT COUNCIL GROVE, KS 07151500: Flow=361cfs,Stage=3.05ft,Floodstage=10ft,2017-05-23 16:00,76-90,CHIKASKIA R NR CORBIN, KS 07146500: Flow=6160cfs,Stage=7.19ft,Floodstage=11ft,2017-05-23 16:00,76-90,ARKANSAS R AT ARKANSAS CITY, KS 07145700: Flow=43cfs,Stage=4.61ft,Floodstage=19ft,2017-05-23 16:00,76-90,SLATE C AT WELLINGTON, KS 07145500: Flow=1010cfs,Stage=4.70ft,Floodstage=17ft,2017-05-23 16:00,76-90,NINNESCAH R NR PECK, KS 07145200: Flow=280cfs,Stage=4.32ft,Floodstage=8ft,2017-05-23 15:00,76-90,SF NINNESCAH R NR MURDOCK, KS 07144780: Flow=240cfs,Stage=7.26ft,2017-05-23 15:30,76-90,NF NINNESCAH R AB CHENEY RE, KS 07144550: Flow=4900cfs,Stage=5.22ft,Floodstage=12ft,2017-05-23 16:00,76-90,ARKANSAS R AT DERBY, KS 07144300: Flow=4870cfs,Stage=8.46ft,2017-05-23 15:45,76-90,ARKANSAS R AT WICHITA, KS 07144200: Flow=692cfs,Stage=4.55ft,2017-05-23 15:00,76-90,L ARKANSAS R AT VALLEY CENTER, KS 07143665: Flow=223cfs,Stage=3.10ft,Floodstage=22ft,2017-05-23 15:15,76-90,L ARKANSAS R AT ALTA MILLS, KS 07142300: Flow=38cfs,Stage=5.05ft,Floodstage=9ft,2017-05-23 15:00,76-90,RATTLESNAKE C NR MACKSVILLE, KS 06912500: Flow=418cfs,Stage=4.85ft,2017-05-23 15:45,76-90,HUNDRED AND TEN MILE C NR QUENEMO, KS 06911000: Flow=474cfs,Stage=5.14ft,2017-05-23 15:45,76-90,MARAIS DES CYGNES R AT MELVERN, KS 06892350: Flow=19300cfs,Stage=10.85ft,Floodstage=26ft,2017-05-23 15:45,76-90,KANSAS R AT DESOTO, KS 06891000: Flow=17800cfs,Stage=8.12ft,Floodstage=17ft,2017-05-23 15:30,76-90,KANSAS R AT LECOMPTON, KS 06890100: Flow=483cfs,Stage=4.91ft,Floodstage=27ft,2017-05-23 15:45,76-90,DELAWARE R NR MUSCOTAH, KS 06889500: Flow=511cfs,Stage=2.76ft,Floodstage=29ft,2017-05-23 16:00,76-90,SOLDIER C NR TOPEKA, KS 06889200: Flow=253cfs,Stage=9.13ft,Floodstage=26ft,2017-05-23 15:30,76-90,SOLDIER C NR DELIA, KS 06889000: Flow=16400cfs,Stage=11.91ft,Floodstage=26ft,2017-05-23 15:30,76-90,KANSAS R AT TOPEKA, KS 06888500: Flow=457cfs,Stage=4.71ft,Floodstage=21ft,2017-05-23 15:45,76-90,MILL C NR PAXICO, KS 06888350: Flow=13900cfs,Stage=11.04ft,Floodstage=20ft,2017-05-23 15:30,76-90,KANSAS R NR BELVUE, KS 06888000: Flow=197cfs,Stage=4.97ft,2017-05-23 15:45,76-90,VERMILLION C NR WAMEGO, KS 06885500: Flow=356cfs,Stage=5.58ft,Floodstage=19ft,2017-05-23 15:30,76-90,BLACK VERMILLION R NR FRANKFORT, KS 06884400: Flow=4650cfs,Stage=9.95ft,Floodstage=21ft,2017-05-23 15:30,76-90,L BLUE R NR BARNES, KS 06878000: Flow=293cfs,Stage=7.74ft,Floodstage=19ft,2017-05-23 15:45,76-90,CHAPMAN C NR CHAPMAN, KS 06875900: Flow=773cfs,Stage=11.05ft,Floodstage=21ft,2017-05-23 15:30,76-90,SOLOMON R NR GLEN ELDER, KS 06873000: Flow=124cfs,Stage=3.00ft,Floodstage=8.5ft,2017-05-23 15:15,76-90,SF SOLOMON R AB WEBSTER RE, KS 06872500: Flow=421cfs,Stage=6.82ft,Floodstage=15ft,2017-05-23 15:30,76-90,NF SOLOMON R AT PORTIS, KS 06871500: Flow=29cfs,Stage=3.97ft,Floodstage=9ft,2017-05-23 15:45,76-90,BOW C NR STOCKTON, KS 06871000: Flow=60cfs,Stage=3.86ft,Floodstage=11ft,2017-05-23 15:30,76-90,NF SOLOMON R AT GLADE, KS 06866500: Flow=1050cfs,Stage=8.90ft,Floodstage=20ft,2017-05-23 15:45,76-90,SMOKY HILL R NR MENTOR, KS 06864000: Flow=371cfs,Stage=6.11ft,Floodstage=18ft,2017-05-23 15:30,76-90,SMOKY HILL R NR RUSSELL, KS 06863500: Flow=80cfs,Stage=6.84ft,Floodstage=26ft,2017-05-23 15:30,76-90,BIG C NR HAYS, KS 06854500: Flow=1640cfs,Stage=4.41ft,Floodstage=10ft,2017-05-23 15:15,76-90,REPUBLICAN R AT SCANDIA, KS 06853800: Flow=100cfs,Stage=3.85ft,Floodstage=16ft,2017-05-23 15:45,76-90,WHITE ROCK C NR BURR OAK, KS 06853500: Flow=754cfs,Stage=4.57ft,Floodstage=11ft,2017-05-23 15:30,76-90,REPUBLICAN R NR HARDY, NE 06848500: Flow=31cfs,Stage=3.10ft,Floodstage=21ft,2017-05-23 15:30,76-90,PRAIRIE DOG C NR WOODRUFF, KS 06847900: Flow=18cfs,Stage=3.99ft,Floodstage=11ft,2017-05-23 15:45,76-90,PRAIRIE DOG C AB KEITH SEBELIUS LAKE, KS 06814000: Flow=168cfs,Stage=2.65ft,Floodstage=21ft,2017-05-23 15:45,76-90,TURKEY C NR SENECA, KS 07166500: Flow=78cfs,Stage=3.53ft,Floodstage=19ft,2017-05-23 15:45,10-24,VERDIGRIS R NR ALTOONA, KS 07156900: Flow=25.4cfs,Stage=2.39ft,Floodstage=5ft,2017-05-23 15:00,10-24,Cimarron River near Forgan, OK 06824000: Flow=6.85cfs,Stage=0.60ft,2017-05-23 14:45,10-24,Rock Creek at Parks, Nebr. 06823500: Flow=2.74cfs,Stage=1.07ft,Floodstage=11ft,2017-05-23 14:45,10-24,Buffalo Creek near Haigler, Nebr. 06821500: Flow=2.30cfs,Stage=5.98ft,Floodstage=12ft,2017-05-23 14:30,10-24,Arikaree River at Haigler, Nebr. 07185000: Flow=8370cfs,Stage=7.94ft,Floodstage=15ft,2017-05-23 15:30,25-75,Neosho River near Commerce, OK 07183500: Flow=4680cfs,Stage=11.00ft,Floodstage=21ft,2017-05-23 15:00,25-75,NEOSHO R NR PARSONS, KS 07183000: Flow=4640cfs,Stage=9.09ft,Floodstage=15ft,2017-05-23 15:00,25-75,NEOSHO R NR IOLA, KS 07182510: Flow=3960cfs,Stage=10.71ft,Floodstage=27ft,2017-05-23 15:15,25-75,NEOSHO R AT BURLINGTON, KS 07182250: Flow=1140cfs,Stage=7.73ft,Floodstage=32ft,2017-05-23 16:00,25-75,COTTONWOOD R NR PLYMOUTH, KS 07180500: Flow=48cfs,Stage=4.65ft,2017-05-23 15:15,25-75,CEDAR C NR CEDAR POINT, KS 07172000: Flow=219cfs,Stage=2.24ft,2017-05-23 16:00,25-75,CANEY R NR ELGIN, KS 07170500: Flow=1410cfs,Stage=5.39ft,Floodstage=30ft,2017-05-23 16:00,25-75,VERDIGRIS R AT INDEPENDENCE, KS 07169800: Flow=97cfs,Stage=3.35ft,2017-05-23 15:00,25-75,ELK R AT ELK FALLS, KS 07169500: Flow=894cfs,Stage=5.74ft,Floodstage=17ft,2017-05-23 15:00,25-75,FALL R AT FREDONIA, KS 07167500: Flow=37cfs,Stage=2.27ft,2017-05-23 15:15,25-75,OTTER C AT CLIMAX, KS 07157500: Flow=19cfs,Stage=3.16ft,Floodstage=6.5ft,2017-05-23 15:30,25-75,CROOKED C NR ENGLEWOOD, KS 07149000: Flow=199cfs,Stage=1.50ft,Floodstage=10ft,2017-05-23 15:30,25-75,MEDICINE LODGE R NR KIOWA, KS 07147800: Flow=1580cfs,Stage=4.10ft,Floodstage=18ft,2017-05-23 16:00,25-75,WALNUT R AT WINFIELD, KS 07147070: Flow=194cfs,Stage=3.02ft,2017-05-23 15:30,25-75,WHITEWATER R AT TOWANDA, KS 07144910: Flow=8.5cfs,Stage=2.64ft,Floodstage=9ft,2017-05-23 16:00,25-75,SF NINNESCAH R NR PRATT, KS 07142575: Flow=39cfs,Stage=12.69ft,Floodstage=17ft,2017-05-23 15:30,25-75,RATTLESNAKE C NR ZENITH, KS 07139000: Flow=39cfs,Stage=5.98ft,Floodstage=10ft,2017-05-23 15:30,25-75,ARKANSAS R AT GARDEN CITY, KS 07138000: Flow=210cfs,Stage=5.01ft,Floodstage=10ft,2017-05-23 15:15,25-75,ARKANSAS R AT SYRACUSE, KS 07137500: Flow=176cfs,Stage=3.42ft,Floodstage=8ft,2017-05-23 15:15,25-75,ARKANSAS R NR COOLIDGE, KS 06917500: Flow=180cfs,Stage=9.45ft,Floodstage=38ft,2017-05-23 15:30,25-75,MARMATON R NR FORT SCOTT, KS 06917000: Flow=90cfs,Stage=4.07ft,Floodstage=22ft,2017-05-23 15:15,25-75,L OSAGE R AT FULTON, KS 06916600: Flow=3090cfs,Stage=9.41ft,Floodstage=27ft,2017-05-23 15:45,25-75,MARAIS DES CYGNES R NR KS-MO ST LINE, KS 06915800: Flow=2690cfs,Stage=8.60ft,Floodstage=25ft,2017-05-23 15:15,25-75,MARAIS DES CYGNES R AT LA CYGNE, KS 06913500: Flow=1200cfs,Stage=8.18ft,Floodstage=31ft,2017-05-23 15:30,25-75,MARAIS DES CYGNES R NR OTTAWA, KS 06913000: Flow=1120cfs,Stage=5.39ft,Floodstage=20ft,2017-05-23 15:30,25-75,MARAIS DES CYGNES R NR POMONA, KS 06911900: Flow=62cfs,Stage=8.29ft,Floodstage=19ft,2017-05-23 15:00,25-75,DRAGOON C NR BURLINGAME, KS 06910800: Flow=114cfs,Stage=3.16ft,Floodstage=19ft,2017-05-23 15:45,25-75,MARAIS DES CYGNES R NR READING, KS 06893500: Flow=152cfs,Stage=4.88ft,Floodstage=34ft,2017-05-23 15:45,25-75,Blue River at Kansas City, MO 06893300: Flow=30cfs,Stage=5.89ft,Floodstage=14ft,2017-05-23 15:15,25-75,INDIAN C AT OVERLAND PARK, KS 06893080: Flow=22cfs,Stage=4.00ft,Floodstage=16ft,2017-05-23 15:45,25-75,BLUE R NR STANLEY, KS 06891500: Flow=43cfs,Stage=4.78ft,Floodstage=23ft,2017-05-23 15:45,25-75,WAKARUSA R NR LAWRENCE, KS 06879650: Flow=1.3cfs,Stage=3.47ft,2017-05-23 15:45,25-75,KINGS C NR MANHATTAN, KS 06861000: Flow=8.8cfs,Stage=0.95ft,Floodstage=7ft,2017-05-23 15:30,25-75,SMOKY HILL R NR ARNOLD, KS 06860000: Flow=1.1cfs,Stage=4.22ft,Floodstage=9ft,2017-05-23 15:30,25-75,SMOKY HILL R AT ELKADER, KS 06852500: Flow=52.9cfs,Stage=0.96ft,2017-05-23 15:15,25-75,Courtland Canal at Nebraska-Kansas Stateline 06827500: Flow=15.3cfs,Stage=1.68ft,Floodstage=9ft,2017-05-23 14:30,25-75,South Fork Republican River near Benkelman, Nebr. 06815000: Flow=1080cfs,Stage=6.76ft,Floodstage=27ft,2017-05-23 15:45,25-75,Big Nemaha River at Falls City, Nebr. 385520094420000: Flow=15cfs,2013-07-17 23:45,Not ranked,INDIAN C AT COLLEGE BLVD, JOHNSON CO, KS 375350097262800: Stage=8.22ft,2017-05-23 15:00,Not ranked,L ARKANSAS R UPSTREAM OF ASR FAC NR SEDGWICK, KS 07187600: Flow=6290cfs,Stage=5.66ft,Floodstage=14ft,2017-05-23 15:30,Not ranked,SPRING R NR BAXTER SPRINGS, KS 07186055: Flow=181cfs,Stage=6.54ft,2017-05-23 15:45,Not ranked,COW C NR SCAMMON, KS 07185090: Flow=34.6cfs,Stage=8.81ft,2017-05-23 15:15,Not ranked,Tar Creek near Commerce, OK 07184500: Flow=35cfs,Stage=6.29ft,2017-05-23 15:00,Not ranked,LABETTE C NR OSWEGO, KS 07183300: Stage=14.79ft,Floodstage=29ft,2017-05-23 15:15,Not ranked,NEOSHO R NR ERIE, KS 07182395: Stage=10.86ft,2017-05-23 16:00,Not ranked,NEOSHO R AT HARTFORD, KS 07182390: Flow=3030cfs,Stage=11.74ft,Floodstage=22ft,2017-05-23 15:30,Not ranked,NEOSHO R AT NEOSHO RAPIDS, KS 07182260: Flow=1560cfs,Stage=5.79ft,Floodstage=20ft,2017-05-23 15:30,Not ranked,COTTONWOOD R AT EMPORIA, KS 07182200: Flow=129cfs,Stage=7.80ft,2017-05-23 15:30,Not ranked,SF COTTONWOOD R NR BAZAAR, KS 07180200: Stage=6.44ft,2017-05-23 15:30,Not ranked,COTTONWOOD R AT MARION, KS 07179785: Flow=31cfs,Stage=10.18ft,2017-05-23 15:30,Not ranked,NF COTTONWOOD R NR DURHAM, KS 07179750: Flow=627cfs,Stage=5.36ft,2017-05-23 15:30,Not ranked,NEOSHO R AT BURLINGAME RD NR EMPORIA, KS 07179710: Stage=13.69ft,2017-05-23 15:00,Not ranked,NEOSHO R NR DUNLAP, KS 07179700: Flow=620cfs,Stage=12.16ft,2017-05-23 15:15,Not ranked,ROCK C NR DUNLAP, KS 07179300: Flow=28cfs,Stage=8.12ft,2017-05-23 15:45,Not ranked,NEOSHO R NR PARKERVILLE, KS 07170990: Flow=1590cfs,Stage=5.62ft,2017-05-23 15:45,Not ranked,VERDIGRIS R AT COFFEYVILLE, KS 07170700: Stage=3.70ft,2017-05-23 15:00,Not ranked,BIG HILL C NR CHERRYVALE, KS 07165750: Flow=215cfs,Stage=8.17ft,2017-05-23 16:00,Not ranked,VERDIGRIS R NR VIRGIL, KS 07157940: Flow=105cfs,Stage=7.41ft,2017-05-23 15:00,Not ranked,BLUFF C NR BUTTERMILK, KS 07157740: Flow=91cfs,Stage=8.93ft,2017-05-23 15:15,Not ranked,CIMARRON R NR BUTTERMILK, KS 07148111: Flow=343cfs,Stage=5.54ft,2017-05-23 15:30,Not ranked,GROUSE C NR SILVERDALE, KS 07147900: Stage=6.34ft,Floodstage=18ft,2017-05-23 15:15,Not ranked,WALNUT R AT ARKANSAS CITY, KS 07147190: Stage=5.01ft,Floodstage=21ft,2017-05-23 15:15,Not ranked,WHITEWATER R AT AUGUSTA, KS 07146800: Flow=50cfs,Stage=6.29ft,Floodstage=21ft,2017-05-23 15:00,Not ranked,WB WALNUT R NR EL DORADO, KS 07145600: Flow=6220cfs,Stage=11.52ft,Floodstage=17ft,2017-05-23 15:45,Not ranked,ARKANSAS R ON HWY 160 AT OXFORD, KS 07144795: Flow=0.43cfs,Stage=1.23ft,2015-11-12 10:00,Not ranked,NF NINNESCAH R AT CHENEY DAM, KS 07144790: Stage=1425.43ft,2017-05-23 15:00,Not ranked,CHENEY RE NR CHENEY, KS 07144570: Flow=4790cfs,Stage=10.11ft,Floodstage=16.5ft,2017-05-23 15:15,Not ranked,ARKANSAS R AT MULVANE, KS 07144490: Flow=21cfs,Stage=7.78ft,2017-05-23 15:15,Not ranked,COWSKIN C AT KELLOGG ST, WICHITA, KS 07144486: Flow=1.9cfs,Stage=5.33ft,2017-05-23 16:00,Not ranked,CALFSKIN C AT 119TH ST, WICHITA, KS 07144480: Flow=16cfs,Stage=8.08ft,Floodstage=18ft,2017-05-23 15:30,Not ranked,COWSKIN C AT 119TH ST AT WICHITA, KS 07144470: Stage=10.99ft,2017-05-23 15:15,Not ranked,COWSKIN C AT 29TH ST NORTH OF WICHITA, KS 07144301: Flow=0.00cfs,Stage=6.49ft,2017-05-23 15:45,Not ranked,FLOODWAY AT ARKANSAS R AT WICHITA, KS 07144201: Flow=0.00cfs,Stage=2.57ft,2017-05-23 15:00,Not ranked,FLOODWAY AT L ARKANSAS R AT VALLEY CENTER, KS 07144100: Flow=587cfs,Stage=5.75ft,Floodstage=22ft,2017-05-23 15:15,Not ranked,L ARKANSAS R NR SEDGWICK, KS 07144050: Flow=47cfs,Stage=-0.12ft,Floodstage=19ft,2017-05-23 15:15,Not ranked,EMMA C AT SEDGWICK, KS 07143672: Flow=289cfs,Stage=8.01ft,Floodstage=25ft,2017-05-23 15:30,Not ranked,L ARKANSAS R AT HWY 50 NR HALSTEAD, KS 07143375: Flow=4970cfs,Stage=9.83ft,2017-05-23 15:15,Not ranked,ARKANSAS R NR MAIZE, KS 07143310: Stage=10.21ft,Floodstage=9.5ft,2017-05-23 15:15,Not ranked,COW C NR HUTCHINSON, KS 07142680: Flow=2510cfs,Stage=16.55ft,2017-05-23 15:00,Not ranked,ARKANSAS R NR NICKERSON, KS 07142019: Flow=0.59cfs,Stage=2.00ft,2017-05-23 15:00,Not ranked,CHEYENNE BOTTOMS DV NR GREAT BEND, KS 07141220: Flow=2230cfs,Stage=11.23ft,2017-05-23 16:00,Not ranked,ARKANSAS R NR LARNED, KS 07141000: Flow=14cfs,Stage=4.40ft,2017-05-23 15:45,Not ranked,BUCKNER C AT HANSTON, KS 07140900: Flow=11cfs,Stage=3.21ft,2017-05-23 15:15,Not ranked,BUCKNER C NR JETMORE, KS 07140890: Flow=4.8cfs,Stage=3.22ft,2017-05-23 15:45,Not ranked,BUCKNER C BL HORSETHIEF RE NR JETMORE, KS 07140880: Stage=4.67ft,2017-05-23 15:15:00,Not ranked,Back Water,BUCKNER C AB HORSETHIEF RE NR JETMORE, KS 07139500: Stage=6.00ft,Floodstage=11ft,2017-05-23 15:00,Not ranked,ARKANSAS R AT DODGE CITY, KS 07138075: Flow=5.0cfs,2017-05-02 17:45,Stage=1.46ft,2017-05-23 15:00:00,Not ranked,FARMERS DITCH NR DEERFIELD, KS 07138070: Flow=172cfs,Stage=8.19ft,Floodstage=14ft,2017-05-23 15:45,Not ranked,ARKANSAS R AT DEERFIELD, KS 07138064: Flow=0.00cfs,Stage=1.95ft,2017-05-23 15:15,Not ranked,SOUTHSIDE DITCH RETURN NR DEERFIELD, KS 07138063: Flow=3.0cfs,2017-05-03 21:15,Stage=1.55ft,2017-05-23 15:00:00,Not ranked,SOUTHSIDE DITCH NR LAKIN, KS 07138050: Stage=2.49ft,2017-05-23 15:00:00,Not ranked,Equipment malfunction,AMAZON GREAT EASTERN DITCH NR LAKIN, KS 07138020: Flow=253cfs,Stage=6.94ft,2017-05-23 15:45,Not ranked,ARKANSAS R AT KENDALL, KS 07137010: Flow=0.00cfs,Stage=1.98ft,2017-05-23 15:45,Not ranked,FRONTIER DITCH RETURN NR COOLIDGE, KS 07134990: Flow=20cfs,Stage=3.51ft,2017-05-23 14:15,Not ranked,WILD HORSE CREEK ABOVE HOLLY, CO 06917630: Flow=2.09cfs,Stage=1.78ft,2017-05-23 15:15,Not ranked,East Drywood Creek at Prairie State Park 06917560: Flow=211cfs,Stage=4.05ft,Floodstage=25ft,2017-05-23 15:15,Not ranked,Marmaton River near Richards, MO 06917380: Flow=194cfs,2008-11-12 23:45,Not ranked,MARMATON R NR MARMATON, KS 06917240: Flow=33cfs,Stage=0.23ft,2017-05-23 15:00,Not ranked,MARMATON R NR UNIONTOWN, KS 06914995: Stage=919.46ft,2017-05-23 15:30,Not ranked,HILLSDALE LK NR HILLSDALE, KS 06914990: Flow=3.9cfs,Stage=3.06ft,2017-05-23 15:30,Not ranked,L BULL C NR SPRING HILL, KS 06914950: Flow=8.3cfs,Stage=2.24ft,2017-05-23 15:00,Not ranked,BIG BULL C NR EDGERTON, KS 06914500: Flow=156cfs,Stage=6.12ft,Floodstage=23ft,2017-05-23 15:30,Not ranked,POTTAWATOMIE C AT LANE, KS 06914100: Flow=102cfs,Stage=4.02ft,Floodstage=23ft,2017-05-23 15:45,Not ranked,POTTAWATOMIE C NR SCIPIO, KS 06912490: Stage=979.16ft,2017-05-23 15:45,Not ranked,POMONA LK NR QUENEMO, KS 06911490: Flow=20cfs,Stage=0.74ft,Floodstage=10ft,2017-05-23 15:30,Not ranked,SALT C AT LYNDON, KS 06910997: Stage=1039.23ft,2017-05-23 15:30,Not ranked,MELVERN LK NR MELVERN, KS 06893578: Flow=306cfs,Stage=6.55ft,Floodstage=33ft,2017-05-23 15:30,Not ranked,Blue River at Stadium Drive in Kansas City, MO 06893562: Stage=4.55ft,2017-05-23 15:45,Not ranked,Brush Creek at Rockhill Road in Kansas City, MO 06893557: Flow=11.2cfs,Stage=35.80ft,Floodstage=47ft,2017-05-23 15:15,Not ranked,Brush Creek at Ward Parkway in Kansas City, MO 06893400: Stage=83.22ft,2017-05-23 15:30,Not ranked,Indian Creek at 103rd St in Kansas City, MO 06893390: Flow=65cfs,Stage=10.48ft,Floodstage=20ft,2017-05-23 15:30,Not ranked,INDIAN C AT STATE LINE RD, LEAWOOD, KS 06893350: Flow=12cfs,Stage=2.09ft,2017-05-23 15:15,Not ranked,TOMAHAWK C NR OVERLAND PARK, KS 06893150: Flow=75.9cfs,Stage=25.27ft,Floodstage=35ft,2017-05-23 16:00,Not ranked,Blue River at Blue Ridge Blvd Ext in KC, MO 06893100: Flow=46cfs,Stage=5.63ft,2017-05-23 15:30,Not ranked,BLUE R AT KENNETH RD, OVERLAND PARK, KS 06892950: Stage=24.90ft,Floodstage=33ft,2017-05-23 15:45,Not ranked,KANSAS R AT KANSAS CITY, KS 06892518: Flow=18500cfs,Stage=12.75ft,2017-05-23 15:45,Not ranked,KANSAS R NR LAKE QUIVIRA, KS 06892513: Flow=84cfs,Stage=49.26ft,2017-05-23 15:30,Not ranked,MILL C AT JOHNSON DRIVE, SHAWNEE, KS 06892495: Flow=61cfs,Stage=57.69ft,2017-05-23 15:45,Not ranked,CEDAR C NR DESOTO, KS 06892494: Stage=3.42ft,2017-05-23 16:00,Not ranked,CAMP C AT 95TH ST NR DESOTO, KS 06892493: Stage=77.14ft,2017-05-23 16:00,Not ranked,CEDAR C AT 95TH ST NR DESOTO, KS 06892360: Flow=51cfs,Stage=5.33ft,2017-05-23 15:30,Not ranked,KILL C AT 95TH ST NR DESOTO, KS 06891850: Flow=897cfs,Stage=8.84ft,Floodstage=17ft,2017-05-23 15:30,Not ranked,STRANGER C AT EASTON, KS 06891810: Flow=199cfs,2015-06-09 23:45,Not ranked,STRANGER C NR POTTER, KS 06891478: Stage=877.55ft,2017-05-23 15:00,Not ranked,CLINTON LK NR LAWRENCE, KS 06891260: Flow=118cfs,Stage=4.71ft,2017-05-23 15:30,Not ranked,WAKARUSA R NR RICHLAND, KS 06891200: Stage=3.81ft,Floodstage=15ft,2017-05-23 15:15,Not ranked,WAKARUSA R AT WAKARUSA, KS 06891080: Flow=18500cfs,Stage=-4.26ft,Floodstage=18ft,2017-05-23 15:45,Not ranked,KANSAS R AT LAWRENCE, KS 06890900: Stage=32.66ft,2017-05-23 15:30:00,Not ranked,Maintenance in progress,DELAWARE R AT PERRY, KS 06890898: Stage=896.60ft,2017-05-23 15:30,Not ranked,PERRY LK NR PERRY, KS 06889630: Flow=29cfs,Stage=5.11ft,Floodstage=24ft,2017-05-23 15:15,Not ranked,SHUNGANUNGA C AT TOPEKA, KS 06889585: Stage=5.46ft,Floodstage=15ft,2017-05-23 15:15,Not ranked,SHUNGANUNGA C AT GAGE BLVD, TOPEKA, KS 06888990: Flow=14700cfs,Stage=8.82ft,2017-05-23 15:30,Not ranked,KANSAS R AT TOPEKA WATER PLANT, KS 06888700: Stage=8.91ft,Floodstage=25ft,2017-05-23 15:30,Not ranked,CROSS C AT ROSSVILLE, KS 06888300: Flow=198cfs,Stage=9.56ft,Floodstage=27ft,2017-05-23 15:45,Not ranked,ROCK C NR LOUISVILLE, KS 06887500: Flow=13800cfs,Stage=9.10ft,Floodstage=19ft,2017-05-23 15:30,Not ranked,KANSAS R AT WAMEGO, KS 06887000: Stage=4.98ft,2017-05-23 15:00:00,Floodstage=19ft,Not ranked,Back Water,BIG BLUE R NR MANHATTAN, KS 06886900: Stage=1090.48ft,2017-05-23 15:00,Not ranked,TUTTLE C LK NR MANHATTAN, KS 06886850: Stage=5.39ft,2017-05-23 15:30,Not ranked,MILL C NR RILEY, KS 06886500: Flow=157cfs,Stage=1.83ft,Floodstage=16ft,2017-05-23 15:15,Not ranked,FANCY C AT WINKLER, KS 06884700: Stage=29.75ft,Floodstage=26ft,2017-05-23 15:15,Not ranked,BIG BLUE R AT BLUE RAPIDS, KS 06879820: Stage=12.60ft,Floodstage=18ft,2017-05-23 16:00,Not ranked,KANSAS R AT MANHATTAN, KS 06879815: Stage=3.50ft,2017-05-23 16:00,Not ranked,WILDCAT C AT SETH CHILDS RD, MANHATTAN, KS 06879810: Flow=92cfs,Stage=3.55ft,Floodstage=14ft,2017-05-23 15:15,Not ranked,WILDCAT C AT SCENIC DRIVE, MANHATTAN, KS 06879805: Stage=6.94ft,2017-05-23 15:00,Not ranked,WILDCAT C AT KEATS, KS 06878600: Flow=175cfs,Stage=7.00ft,Floodstage=21ft,2017-05-23 15:15,Not ranked,LYON C NR JUNCTION CITY, KS 06876440: Flow=1900cfs,Stage=10.09ft,Floodstage=26ft,2017-05-23 15:15,Not ranked,SOLOMON R NR MINNEAPOLIS, KS 06876070: Stage=14.48ft,2017-05-23 15:15,Not ranked,SOLOMON R NR SIMPSON, KS 06876000: Stage=8.74ft,2017-05-23 15:45:00,Not ranked,Back Water,SOLOMON R AT BELOIT, KS 06870300: Flow=45cfs,Stage=20.62ft,2017-05-23 15:15,Not ranked,GYPSUM C NR GYPSUM, KS 06870200: Stage=18.67ft,Floodstage=27ft,2017-05-23 15:45,Not ranked,SMOKY HILL R AT NEW CAMBRIA, KS 06869950: Flow=323cfs,Stage=6.42ft,Floodstage=24ft,2017-05-23 15:00,Not ranked,MULBERRY C NR SALINA, KS 06868850: Flow=839cfs,Stage=20.18ft,Floodstage=30ft,2017-05-23 15:45,Not ranked,SALINE R AT LINCOLN, KS 06868100: Stage=1518.90ft,2017-05-23 15:30,Not ranked,WILSON LK NR WILSON, KS 06867500: Flow=178cfs,Stage=10.98ft,2017-05-23 15:30,Not ranked,PARADISE C NR PARADISE, KS 06866900: Flow=22cfs,Stage=3.40ft,Floodstage=13ft,2017-05-23 15:00,Not ranked,SALINE R NR WAKEENEY, KS 06865000: Stage=1473.35ft,2017-05-23 15:30,Not ranked,KANOPOLIS LK NR KANOPOLIS, KS 06864050: Flow=58cfs,2011-06-08 23:45,Not ranked,SMOKY HILL R NR BUNKER HILL, KS 06863420: Flow=6.7cfs,Stage=2.20ft,2017-05-23 15:15,Not ranked,BIG C NR ELLIS, KS 06863000: Flow=93cfs,Stage=3.29ft,2017-05-23 16:00,Not ranked,SMOKY HILL R AT PFEIFER, KS 06861500: Stage=2119.71ft,2017-05-23 15:15,Not ranked,CEDAR BLUFF RE NR ELLIS, KS 06860900: Flow=0.00cfs,Stage=7.09ft,2017-05-23 15:30,Not ranked,HACKBERRY C NR TREGO CENTER, KS 06857100: Stage=8.04ft,2017-05-23 15:30:00,Not ranked,Back Water,REPUBLICAN R AT JUNCTION CITY, KS 06857050: Stage=1149.80ft,2017-05-23 15:30,Not ranked,MILFORD LK NR JUNCTION CITY, KS 06855850: Flow=1230cfs,Stage=14.27ft,2017-05-23 15:15,Not ranked,BUFFALO C 4 MI E OF JAMESTOWN, KS 06854000: Stage=7.32ft,2017-05-23 15:45,Not ranked,WHITE ROCK C AT LOVEWELL, KS 06853020: Flow=345cfs,Stage=6.12ft,Floodstage=11ft,2017-05-23 15:30,Not ranked,Republican River at Guide Rock, Nebr. 06846500: Flow=0.00cfs,Stage=2.80ft,Floodstage=16ft,2017-05-23 15:00,Not ranked,BEAVER C AT CEDAR BLUFFS, KS 06845110: Flow=5.7cfs,Stage=5.68ft,Floodstage=17ft,2017-05-23 15:30,Not ranked,SAPPA C NR LYLE, KS 06827000: Flow=9.4cfs,Stage=3.65ft,2017-05-23 15:45,Not ranked,SF REPUBLICAN R NR CO-KS ST LINE, KS 06820475: Stage=17.93ft,Floodstage=20ft,2017-05-23 15:00,Not ranked,MISSOURI R AT LEAVENWORTH, KS 06818300: Stage=21.78ft,Floodstage=22ft,2017-05-23 16:00,Not ranked,MISSOURI R AT ATCHISON, KS Go to WaterWatch (offsite) for a larger map with additional options
USGS Home Water Resources Biology Geography Geology Geospatial

Accessibility FOIA Privacy Policies and Notices

Take Pride in America logo USA.gov logo U.S. Department of the Interior | U.S. Geological Survey
Page Contact Information: GS-W-KS_info@usgs.gov
Page Last Modified: 2017-04-18 11:00:17 CDT